Location: México DF
(19.4326°N, 99.1332°W)
Time: 05:47:47
(UTC+00:00)

ISS - Pass Details

Date: 13 July 2024
Orbit: 410 x 424 km, 51.6° (Epoch: 15 July)

Event Time Altitude Azimuth Distance (km) Brightness Sun altitude
Rises 01:27:44 0° 247° (WSW) 2,328 0.7 -2.8°
Reaches altitude 10° 01:30:13 10° 265° (W) 1,467 0.2 -3.3°
Maximum altitude 01:32:39 19° 313° (NW) 1,045 -0.5 -3.9°
Drops below altitude 10° 01:35:04 10° 1° (N) 1,466 -0.7 -4.4°
Sets 01:37:34 0° 20° (NNE) 2,327 0.1 -4.9°
